Погода в Веденье

Россия / Костромская область     58°48′19″N   46°53′24″E
темп.,
°C
ветер,
м/с
пор.,
м/с
влажн.,
%
обл.,
%
осадки,
мм/ч
давл.,
гПа
погр.,
м
21 января, чт
чт2100:00−18з239984 0.0 101362
03:00−19з259987 0.0 101393
06:00−18з2799100 0.0 1013169
09:00−19з2598100 0.1 1013127
12:00−15з2693100 0.0 1013270
15:00−15зсз2296100 0.0 101258
18:00−18сз239729 0.0 101321
21:00−21ссз229715 0.0 101420
22 января, пт
пт2200:00−24ссз22970 0.0 101520
03:00−26ссз229724 0.0 101619
06:00−28с229725 0.0 101719
09:00−27ссв229642 0.0 101932
12:00−23всв139392 0.0 1020206
15:00−23в249594 0.0 1021136
18:00−24вюв379563 0.0 1022206
21:00−22юв389481 0.0 1023271
23 января, сб
сб2300:00−21юв4893100 0.0 1023296
03:00−20юв4997100 0.2 1022331
06:00−19юв51197100 1.3 1021345
09:00−18юв51096100 2.9 1019402
12:00−16юв4893100 0.7 1018394
15:00−14юв4793100 0.9 1017335
18:00−15вюв3795100 0.2 1016262
21:00−15вюв3796100 0.2 1016207
24 января, вс
вс2400:00−14вюв3696100 0.1 1016172
03:00−12вюв3596100 0.2 1016177
06:00−10вюв2595100 0.5 1015150
09:00−8вюв2396100 1.5 101698
12:00−4ююв0196100 0.1 101682
15:00−3ююв1198100 0.1 101722
18:000юв1199100 0.3 101831
21:00+1ююз3799100 0.5 1019263
25 января, пн
пн2500:000ююз2697100 0.0 1019237
03:000ю2698100 0.1 1019220
06:00+1ю3699100 0.1 1019175
09:00+1ю2699100 0.2 1019176
12:00+1ю37100100 0.2 1019271
15:00+1ю3999100 0.5 1020284
18:000ю41095100 0.1 1020393
21:00−2ю3995100 0.1 1021323